map of MAM home
Great Circle Mapper logo
MAM - Airport
Location
City:  Matamoros, Tamaulipas, México
Name:General Servando Canales International Airport
ICAO:MMMA
IATA:MAM

Details
Type:Airport (Aerodrome, Airfield)
Use:Public/Civil, International (customs port of entry)
Latitude:25°46'12"N (25.769894)
Longitude:97°31'31"W (-97.525310)
Datum:WGS 1984
Elevation:25 ft (8 m)
Variation:3.96°E (WMM2015 magnetic declination)
-0.12° annual change
Runways:1
Longest:7546 × 151 ft (2300 × 46 m), paved

Time
Time Zone:UTC-6 (DST-5)
Local Time:

Weather
METAR:MMMA 060140Z 14004KT 8SM SCT200 24/15 A2996 RMK 8/008
TAF:MMMA 060508Z 0606/0706 10005KT P6SM SCT200
TEMPO 0610/0614 3SM BR
FM061700 13010KT P6SM BKN200
BECMG 0701/0702 14006KT

Related Locations
Nearby:
Farthest:RRG: 11159 mi / 17959 km
Plaine Corail, Rodrigues Island, MU

Find:

   beyond  
but within

Other Information
Maps:
NOTAMs:
Links:
Sources:

  
flag of México
flag of Tamaulipas
  

Sectional Chart

Flight Planning
at skyvector.com

Satellite Image

Google Maps Satellite view

 

Copyright © 2004-2016 Karl L. Swartz. All rights reserved.
The Great Circle Mapper name and logo are trademarks of the Great Circle Mapper.
All other trademarks mentioned herein belong to their respective owners.
Please see credits for attibutions and further copyright information.

  Follow gcmap on Facebook Follow gcmap on Twitter Follow gcmap on Google+ GCmap on LinkedIn

hCard Microformat

Geo Microformat